N0TOA-13 Weather Reports


Display with metric or nautical units.
time (UTC)temp
F
wind
direction
speed
MPH
gust
MPH
rain 1hr
in
rain 24hr
in
rain mn
in
humidity
%
barometer
mb
20260507120005 37 137 1.0 5.0 0.00 0.00 0.00 42 992.6
20260507115004 37 193 2.0 6.0 0.00 0.00 0.00 58 1018.5
20260507114004 37 137 1.0 8.0 0.00 0.00 0.00 42 992.6
20260507113005 37 137 1.0 8.0 0.00 0.00 0.00 42 992.4
20260507112004 37 217 2.0 6.0 0.00 0.00 0.00 58 1018.3
20260507111004 37 137 1.0 6.0 0.00 0.00 0.00 42 992.4
20260507110004 37 137 1.0 5.0 0.00 0.00 0.00 42 992.5
20260507105004 37 137 1.0 6.0 0.00 0.00 0.00 42 992.5
20260507104004 37 137 1.0 6.0 0.00 0.00 0.00 42 992.6
20260507103005 36 137 1.0 3.0 0.00 0.00 0.00 44 992.6
20260507102004 36 184 2.0 6.0 0.00 0.00 0.00 61 1018.4
20260507101005 36 137 1.0 6.0 0.00 0.00 0.00 44 992.6
20260507100005 36 137 1.0 6.0 0.00 0.00 0.00 44 992.7
20260507095004 36 209 1.0 3.0 0.00 0.00 0.00 63 1018.7
20260507094005 36 137 1.0 5.0 0.00 0.00 0.00 44 992.9
20260507093004 36 257 2.0 6.0 0.00 0.00 0.00 64 1018.8
20260507091005 36 137 1.0 5.0 0.00 0.00 0.00 50 992.8
20260507090004 35 229 3.0 7.0 0.00 0.00 0.00 67 1018.7
20260507085004 35 167 2.0 5.0 0.00 0.00 0.00 69 1018.7
20260507084005 34 137 1.0 1.0 0.00 0.00 0.00 50 992.9
20260507083005 34 137 1.0 5.0 0.00 0.00 0.00 61 992.9
20260507082005 34 137 1.0 1.0 0.00 0.00 0.00 61 993.1
20260507081005 34 137 1.0 1.0 0.00 0.00 0.00 61 993.1
20260507080005 34 137 1.0 1.0 0.00 0.00 0.00 61 993.3
20260507075004 34 137 1.0 1.0 0.00 0.00 0.00 61 993.5
20260507074004 34 137 1.0 1.0 0.00 0.00 0.00 61 993.5
20260507073004 34 162 2.0 5.0 0.00 0.00 0.00 81 1019.5
20260507072004 34 137 1.0 1.0 0.00 0.00 0.00 72 993.7
20260507071005 34 137 1.0 1.0 0.00 0.00 0.00 72 993.7
20260507070009 33 137 1.0 1.0 0.00 0.00 0.00 72 993.8
20260507065004 34 169 2.0 6.0 0.00 0.00 0.00 84 1019.6
20260507064004 34 187 2.0 6.0 0.00 0.00 0.00 84 1019.6
20260507063004 34 137 1.0 1.0 0.00 0.00 0.00 77 993.8
20260507062004 34 166 2.0 6.0 0.00 0.00 0.00 84 1019.7
20260507061004 34 179 1.0 5.0 0.00 0.00 0.00 84 1019.7
20260507060005 34 137 1.0 1.0 0.00 0.00 0.00 77 993.8
20260507055004 34 137 1.0 1.0 0.00 0.00 0.00 77 993.8
20260507054005 34 137 1.0 1.0 0.00 0.00 0.00 77 993.9
20260507054003 34 273 0.0 5.0 0.00 0.00 0.00 86 1019.8
20260507053005 34 137 1.0 1.0 0.00 0.00 0.00 78 993.9
20260507052004 34 97 1.0 5.0 0.00 0.00 0.00 84 1019.8
20260507051004 34 265 1.0 6.0 0.00 0.00 0.00 84 1019.8
20260507050005 34 137 1.0 1.0 0.00 0.00 0.00 78 994.0
20260507044004 35 137 1.0 1.0 0.00 0.00 0.00 78 994.0
20260507043004 35 137 1.0 1.0 0.00 0.00 0.00 78 994.0
20260507042005 35 137 1.0 1.0 0.00 0.00 0.00 78 994.0
20260507042003 35 160 2.0 6.0 0.00 0.00 0.00 83 1019.9
20260507041004 35 137 1.0 1.0 0.00 0.00 0.00 78 994.0
20260507040005 35 137 1.0 1.0 0.00 0.00 0.00 78 993.9
20260507035004 35 137 1.0 1.0 0.00 0.00 0.00 78 993.9
20260507034003 35 175 2.0 5.0 0.00 0.00 0.00 84 1019.8
20260507033004 35 220 2.0 5.0 0.00 0.00 0.00 84 1019.7
20260507032005 35 137 1.0 1.0 0.00 0.00 0.00 69 993.8
20260507031005 35 137 1.0 1.0 0.00 0.00 0.00 69 993.8
20260507030004 35 208 2.0 3.0 0.00 0.00 0.00 82 1019.6
20260507025004 35 177 1.0 3.0 0.00 0.00 0.00 82 1019.6
20260507023004 35 137 1.0 1.0 0.00 0.00 0.00 66 993.6
20260507022004 36 205 1.0 3.0 0.00 0.00 0.00 80 1019.5
20260507021005 36 137 1.0 1.0 0.00 0.00 0.00 66 993.5
20260507020004 36 181 1.0 3.0 0.00 0.00 0.00 78 1019.4
20260507015004 37 172 1.0 5.0 0.00 0.00 0.00 77 1019.5
20260507014005 37 137 1.0 1.0 0.00 0.00 0.00 66 993.6
20260507014003 37 191 1.0 6.0 0.00 0.00 0.00 76 1019.5
20260507013005 38 137 1.0 1.0 0.00 0.00 0.00 66 993.7
20260507012004 38 172 2.0 5.0 0.00 0.00 0.00 73 1019.6
20260507010004 39 137 1.0 1.0 0.00 0.00 0.00 66 993.7
20260507005004 40 137 1.0 1.0 0.00 0.00 0.00 66 993.8
20260507004004 40 250 1.0 3.0 0.00 0.00 0.00 67 1019.7
20260507003004 40 339 1.0 3.0 0.00 0.00 0.00 66 1019.7
20260507002004 40 137 1.0 1.0 0.00 0.00 0.00 69 993.9
20260507001004 40 137 1.0 1.0 0.00 0.00 0.00 69 993.9
20260507000005 40 137 1.0 1.0 0.00 0.00 0.00 69 993.9
20260506235005 40 137 1.0 1.0 0.00 0.00 0.00 69 993.9
20260506234004 39 104 1.0 6.0 0.00 0.00 0.00 71 1019.9
20260506233004 39 71 1.0 3.0 0.00 0.00 0.00 69 1019.8
20260506232005 38 137 1.0 1.0 0.00 0.00 0.00 69 994.0
20260506231004 37 46 1.0 5.0 0.00 0.00 0.00 74 1020.0
20260506230004 37 137 1.0 1.0 0.00 0.00 0.00 69 994.1
20260506225004 37 238 1.0 5.0 0.00 0.00 0.00 75 1020.0
20260506224004 38 137 1.0 1.0 0.00 0.00 0.00 69 994.2
20260506223004 37 137 1.0 1.0 0.00 0.00 0.00 77 994.4
20260506222004 35 279 1.0 3.0 0.00 0.00 0.00 74 1020.4
20260506221005 35 137 1.0 1.0 0.00 0.00 0.00 77 994.6
20260506220005 35 137 1.0 1.0 0.00 0.00 0.00 77 994.6
20260506215005 35 137 1.0 1.0 0.00 0.00 0.00 77 994.7
20260506215003 35 231 1.0 3.0 0.00 0.00 0.00 80 1020.6
20260506214004 35 137 1.0 1.0 0.00 0.00 0.00 77 994.7
20260506213004 36 330 1.0 3.0 0.00 0.00 0.00 77 1020.7
20260506212004 36 341 1.0 3.0 0.00 0.00 0.00 80 1020.8
20260506211004 36 48 0.0 5.0 0.00 0.00 0.00 77 1020.8
20260506210005 36 137 1.0 1.0 0.00 0.00 0.00 85 995.0
20260506205004 36 311 1.0 2.0 0.00 0.00 0.00 76 1020.9
20260506204004 37 137 1.0 1.0 0.00 0.00 0.00 85 995.1
20260506203004 36 344 2.0 3.0 0.00 0.02 0.00 78 1021.0
20260506202005 36 137 1.0 1.0 0.00 0.00 0.00 85 995.2
20260506201004 35 137 1.0 1.0 0.00 0.00 0.00 85 995.3
20260506200005 35 137 1.0 1.0 0.00 0.00 0.00 88 995.4
20260506195004 35 330 2.0 3.0 0.00 0.02 0.00 87 1021.4
20260506194005 34 137 1.0 1.0 0.00 0.00 0.00 88 995.4
20260506193004 34 137 1.0 1.0 0.00 0.00 0.00 92 995.5
20260506192004 34 357 1.0 3.0 0.00 0.02 0.00 90 1021.5
20260506191004 34 137 1.0 1.0 0.00 0.00 0.00 92 995.6
20260506190005 34 137 1.0 1.0 0.00 0.00 0.00 92 995.6
20260506185004 33 29 1.0 2.0 0.00 0.02 0.00 89 1021.5
20260506184004 32 137 1.0 1.0 0.00 0.00 0.00 92 995.7
20260506183005 32 358 1.0 2.0 0.00 0.02 0.00 92 1021.7
20260506182004 31 137 1.0 1.0 0.00 0.00 0.00 96 995.8
20260506181004 31 137 1.0 1.0 0.00 0.00 0.00 96 995.8
20260506180005 31 137 1.0 1.0 0.00 0.00 0.00 96 995.7
20260506175004 31 356 1.0 3.0 0.00 0.02 0.00 95 1021.6
20260506174004 31 359 1.0 5.0 0.00 0.02 0.00 94 1021.5
20260506173005 31 137 1.0 1.0 0.00 0.00 0.00 95 995.6
20260506172004 32 6 1.0 3.0 0.00 0.02 0.00 94 1021.4
20260506171004 33 338 1.0 5.0 0.00 0.02 0.00 93 1021.2
20260506170004 33 9 1.0 3.0 0.00 0.02 0.00 94 1021.1
20260506165005 33 137 1.0 1.0 0.00 0.00 0.00 95 994.9
20260506164004 33 344 0.0 1.0 0.00 0.02 0.00 94 1020.8
20260506163005 33 137 1.0 1.0 0.00 0.00 0.00 100 994.9
20260506162005 32 137 1.0 1.0 0.00 0.00 0.00 100 994.9
20260506162003 32 357 0.0 2.0 0.00 0.02 0.00 95 1020.9
20260506161004 32 137 1.0 1.0 0.00 0.00 0.00 100 994.7
20260506160005 32 355 0.0 2.0 0.00 0.02 0.00 96 1020.6
20260506155004 32 341 0.0 1.0 0.00 0.02 0.00 96 1020.7
20260506154004 32 137 1.0 1.0 0.00 0.00 0.00 100 994.8
20260506153004 31 350 1.0 2.0 0.00 0.02 0.00 96 1020.6
20260506152004 32 345 0.0 1.0 0.00 0.02 0.00 96 1020.5
20260506150005 32 137 1.0 1.0 0.00 0.00 0.00 100 994.4
20260506145004 32 12 0.0 2.0 0.00 0.02 0.00 97 1020.3
20260506144004 32 356 1.0 1.0 0.00 0.02 0.00 98 1020.2
20260506143004 32 115 1.0 1.0 0.00 0.02 0.00 98 1020.1
20260506142004 31 79 0.0 2.0 0.00 0.02 0.00 98 1020.2
20260506141004 31 137 1.0 1.0 0.00 0.00 0.00 95 994.2
20260506140005 31 137 1.0 1.0 0.00 0.00 0.00 95 994.3
20260506135005 31 137 1.0 1.0 0.00 0.00 0.00 95 994.3
20260506135003 31 340 0.0 1.0 0.00 0.02 0.00 99 1020.2
20260506134005 31 137 1.0 1.0 0.00 0.00 0.00 95 994.0
20260506133005 31 137 1.0 1.0 0.00 0.00 0.00 92 994.0
20260506132005 31 347 0.0 1.0 0.00 0.10 0.00 99 1019.7
20260506131004 30 11 0.0 1.0 0.00 0.10 0.00 99 1019.6
20260506130005 30 35 0.0 1.0 0.00 0.10 0.00 99 1019.5
20260506125005 30 137 1.0 1.0 0.00 0.00 0.00 92 993.3
20260506124003 30 293 0.0 1.0 0.00 0.10 0.00 99 1019.3
20260506123005 30 137 1.0 1.0 0.00 0.00 0.00 96 993.4
20260506122004 30 137 1.0 1.0 0.00 0.00 0.00 96 993.3
20260506121004 30 137 1.0 1.0 0.00 0.00 0.00 96 993.2